Wind_Speed
21 20 20 20 20 19 19 18 17 15 15 14 14 13 12 12 12 12 12 12 12 12 13 13 13 13 13 13 13 14 14 14 13 13 14 13 13 13 13 13 13 14 14 14
22 22 22 21 21 20 19 18 17 16 15 15 15 14 14 13 12 12 12 12 13 13 13 14 14 14 14 14 14 14 14 14 14 14 14 14 14 14 14 14 14 15 14 14
22 22 23 22 20 19 18 18 17 17 16 16 16 15 14 14 13 13 12 12 12 13 14 14 14 14 14 14 14 14 15 14 15 15 15 15 15 16 16 16 16 16 15 15
22 22 24 19 20 19 18 18 18 17 17 16 16 16 15 15 15 14 14 13 13 13 14 14 14 14 14 14 14 14 15 15 15 16 16 16 17 17 17 17 17 16 17 17
24 23 22 19 20 19 19 19 18 17 17 17 17 16 15 15 15 15 14 14 14 14 14 14 14 14 15 15 14 14 15 16 16 17 17 17 17 18 18 18 18 18 18 18
25 24 22 19 19 20 20 20 18 18 17 17 17 16 15 15 15 15 15 15 15 15 15 14 14 14 15 15 15 15 15 15 15 16 17 17 18 18 18 18 18 19 18 19
24 24 22 20 20 21 20 18 19 19 18 18 18 16 15 16 16 15 15 15 15 15 14 15 15 15 15 16 16 16 16 16 15 16 16 17 17 18 18 18 19 19 19 19
24 25 22 21 21 21 19 20 19 19 19 19 19 18 17 17 17 16 16 16 16 15 15 16 16 16 17 17 17 18 17 17 17 17 18 18 18 19 19 19 19 19 20 20
25 24 23 23 22 21 21 20 20 20 20 20 20 19 18 18 18 18 17 17 17 17 16 17 17 17 17 18 18 19 18 18 18 18 18 19 19 20 20 20 20 20 21 21
26 25 25 24 23 22 22 21 22 22 22 21 21 20 19 19 19 19 19 19 18 18 18 17 18 18 19 19 19 19 19 20 20 20 20 20 21 21 21 21 22 22 22 23
26 26 26 25 24 24 23 22 23 23 23 23 22 21 21 21 21 21 21 20 20 19 19 19 19 19 20 20 20 20 21 21 22 22 22 22 23 23 23 23 24 24 24 25
26 26 27 26 25 26 25 24 24 25 24 24 23 23 23 23 23 23 23 23 22 21 20 20 20 21 21 22 22 22 22 23 24 24 24 24 24 24 24 25 25 26 26 26
27 27 27 27 27 27 26 26 26 26 26 26 25 25 25 24 24 24 24 24 24 23 23 22 22 22 22 22 23 23 24 24 24 25 25 25 26 26 26 27 27 28 27 28
28 28 27 27 27 27 26 26 27 27 26 26 26 26 26 26 26 26 26 25 25 25 24 24 24 24 24 24 24 25 25 26 26 26 27 27 27 27 28 28 28 28 28 29
29 29 28 28 27 27 27 27 27 27 27 27 28 29 28 28 28 27 27 26 26 26 25 25 25 25 25 26 26 26 26 27 28 27 28 28 28 28 29 29 29 29 30 30
30 30 30 29 29 30 29 29 29 29 28 29 30 30 29 29 29 28 28 28 28 27 26 26 26 26 26 26 27 27 27 27 28 28 28 28 29 29 30 30 31 31 32 32
31 32 32 31 31 31 31 31 30 30 30 29 29 30 30 30 30 29 29 29 29 29 28 27 27 27 27 27 27 27 27 27 28 28 29 29 30 30 31 31 31 32 33 34
31 32 32 32 31 31 31 32 32 31 31 31 31 30 30 31 31 30 31 31 31 30 29 28 28 28 28 28 28 28 29 29 29 29 30 31 31 32 32 33 33 34 34 34
30 31 31 32 32 32 32 33 33 32 32 32 32 32 32 32 32 32 32 32 32 31 30 30 30 31 31 30 30 30 31 31 31 31 32 32 33 33 33 33 33 34 35 35
32 31 31 33 33 34 34 34 33 33 33 33 33 33 33 33 33 33 33 33 33 33 33 33 33 33 32 32 33 33 33 32 32 32 32 32 33 33 34 34 35 36 36 36
34 32 32 33 34 35 35 35 35 34 34 34 34 34 34 34 34 34 34 34 34 34 34 34 34 34 34 34 34 34 34 33 33 34 35 35 35 35 35 36 36 37 37 37
33 33 33 34 34 35 36 36 36 36 36 35 34 35 35 35 36 35 36 35 35 35 35 35 35 35 36 36 36 36 36 36 36 36 36 36 37 36 37 37 37 37 38 38
33 33 34 34 35 35 36 36 37 37 37 36 36 36 36 37 37 36 36 36 36 36 36 36 36 36 37 38 38 38 38 37 37 37 37 37 37 37 37 37 38 38 39 39
33 33 33 34 34 35 36 36 37 37 37 36 36 36 37 37 36 37 37 36 36 37 37 38 38 37 38 38 38 39 38 38 37 38 38 38 38 38 38 38 38 38 38 38
33 33 33 34 34 35 35 36 36 37 36 36 36 36 36 36 36 37 38 39 39 40 39 39 39 39 39 39 39 39 40 39 39 39 38 38 38 38 38 38 38 38 38 38
31 32 33 33 34 35 35 35 35 36 36 36 35 35 36 37 37 37 38 38 40 40 41 40 40 39 39 39 39 39 39 39 39 39 39 38 38 38 38 38 38 38 39 38
32 32 33 33 34 34 35 35 35 34 35 35 35 35 35 36 37 37 38 38 38 39 39 39 39 39 39 39 39 39 39 39 39 39 38 38 38 38 39 39 39 40 40 39
Wind_Direction
242 242 243 244 244 243 244 245 245 242 240 241 240 239 242 245 246 246 247 244 245 246 246 245 243 241 241 243 246 246 247 251 251 252 253 254 256 259 262 263 266 272 277 280
242 243 244 242 242 243 242 241 243 243 239 240 240 241 241 245 245 245 247 246 244 245 245 245 244 244 244 247 248 248 248 252 253 254 255 256 259 263 264 265 267 272 275 277
242 242 243 241 240 240 241 243 245 244 240 240 240 241 241 242 242 244 245 245 245 246 246 244 244 245 246 248 249 250 250 252 254 255 257 259 261 263 265 265 267 269 271 276
241 239 242 241 239 239 241 242 242 240 237 237 239 240 241 239 240 243 245 245 245 245 246 247 246 247 248 247 248 250 252 254 256 256 258 261 262 264 265 266 266 267 270 274
240 242 242 238 238 238 239 239 240 240 239 238 239 240 241 240 241 245 246 246 245 244 245 247 248 249 249 250 250 252 257 259 260 258 259 261 264 266 266 265 266 268 271 275
240 242 242 238 239 239 239 237 238 238 237 238 239 242 241 241 242 245 246 248 250 248 247 248 250 251 252 253 253 255 259 262 264 264 262 262 264 267 266 263 266 269 271 275
240 242 242 238 239 240 239 239 240 240 239 240 241 243 242 241 242 244 245 248 250 249 248 249 250 251 254 255 256 258 260 263 265 266 265 265 267 269 269 268 270 271 273 276
240 240 239 238 239 239 240 240 241 241 241 241 242 242 242 242 242 242 245 248 251 251 251 252 253 254 256 256 256 259 261 263 265 267 267 266 268 271 271 271 271 273 275 276
239 238 238 237 239 241 240 240 240 241 241 242 242 242 243 241 242 243 245 247 250 250 251 254 255 257 257 257 258 261 263 265 266 267 269 270 270 272 272 271 272 274 276 277
239 235 235 237 239 241 241 241 242 242 242 243 244 244 243 242 242 244 246 248 250 250 251 254 256 257 258 258 260 262 264 266 267 268 270 271 273 274 273 272 273 275 276 278
240 236 235 235 238 241 242 242 243 243 243 243 243 244 244 243 244 246 247 249 250 251 253 255 256 258 260 261 261 262 264 267 268 270 272 273 274 276 276 273 274 275 276 278
239 237 237 236 240 242 242 242 243 244 243 243 245 245 245 246 246 248 249 250 250 252 255 257 259 261 263 263 262 262 265 267 269 270 272 274 276 278 277 275 274 276 278 279
240 239 240 241 242 242 243 243 244 244 243 244 245 246 246 248 248 248 249 250 250 252 255 258 261 262 263 264 263 264 266 268 270 271 272 274 275 276 276 276 277 277 278 279
242 240 241 242 242 242 243 243 244 243 243 243 245 246 248 249 249 250 250 251 252 254 256 259 261 262 263 265 265 266 268 270 271 271 272 274 275 275 276 276 276 276 277 279
242 241 242 242 241 241 241 240 241 242 243 243 245 246 248 250 251 251 250 251 253 255 257 260 262 263 264 265 267 268 269 271 272 272 273 275 275 274 275 276 276 276 277 278
242 244 242 242 242 243 242 241 242 243 243 243 244 246 249 250 250 249 250 254 255 255 257 260 263 264 266 266 268 269 270 272 274 275 276 276 276 276 277 278 278 278 279 280
242 243 243 243 243 244 244 244 244 243 243 243 244 246 248 249 249 249 250 254 255 255 257 259 261 263 265 267 269 270 271 272 274 276 278 280 280 279 279 280 281 281 282 282
244 243 243 244 245 246 246 246 245 245 245 246 246 247 248 250 251 251 252 254 255 255 256 259 261 263 266 267 269 271 272 273 274 276 278 279 280 280 281 282 282 282 283 284
245 244 243 243 244 244 245 246 245 245 245 247 248 249 249 251 253 255 254 255 255 255 257 259 262 264 266 267 268 270 272 273 274 275 277 279 281 281 281 281 282 283 284 285
247 247 245 244 244 245 246 246 247 246 246 247 249 251 252 253 253 254 254 255 255 257 259 260 262 264 266 268 269 269 271 273 274 276 277 279 280 281 281 282 283 284 285 286
248 247 246 245 244 244 245 246 248 248 248 248 249 252 253 253 254 254 254 256 257 259 261 262 263 264 265 267 269 269 270 272 274 277 278 279 279 280 282 283 283 284 285 285
248 248 248 247 246 245 245 246 248 249 251 251 253 254 254 254 254 254 255 256 258 260 261 262 263 264 265 265 268 270 271 273 275 276 278 279 280 281 282 283 283 284 285 285
248 249 248 247 247 246 246 247 249 251 253 254 255 255 254 254 254 254 255 256 257 259 261 263 264 264 265 266 268 270 271 272 274 275 277 278 279 280 282 283 284 285 285 284
249 249 248 248 248 248 248 249 251 252 254 255 256 257 257 255 255 256 257 258 259 260 261 263 264 265 267 269 270 270 270 271 272 274 276 277 278 280 281 283 284 285 285 284
250 249 249 248 248 249 250 251 252 253 254 256 257 258 258 258 257 258 258 259 260 262 263 264 264 266 268 269 269 270 269 270 271 273 275 277 278 279 281 282 283 285 285 284
248 248 248 248 248 249 250 252 253 254 255 256 258 258 259 260 260 261 261 260 260 261 262 264 266 267 268 268 268 269 269 270 272 274 275 277 278 279 280 281 282 284 284 285
250 249 247 248 250 250 250 251 253 254 255 256 257 258 259 260 261 262 262 262 262 262 263 265 266 268 268 268 269 269 270 271 273 274 275 276 277 279 281 281 282 283 284 284
Height
5808 5810 5812 5814 5816 5818 5819 5822 5824 5827 5828 5830 5831 5832 5833 5834 5835 5835 5836 5837 5838 5839 5840 5841 5842 5843 5844 5845 5846 5847 5849 5849 5850 5851 5852 5852 5853 5854 5854 5855 5855 5855 5855 5854
5803 5805 5806 5808 5811 5813 5815 5817 5820 5822 5824 5826 5827 5828 5829 5831 5831 5832 5833 5834 5835 5836 5837 5838 5839 5840 5841 5842 5843 5844 5845 5846 5847 5848 5848 5849 5850 5850 5851 5851 5851 5851 5851 5851
5797 5799 5801 5803 5807 5808 5811 5813 5816 5818 5821 5821 5823 5824 5826 5827 5828 5829 5830 5831 5832 5833 5834 5835 5835 5836 5837 5838 5839 5840 5841 5842 5843 5844 5845 5845 5846 5847 5847 5847 5847 5847 5847 5847
5791 5794 5795 5802 5802 5804 5806 5809 5810 5813 5815 5817 5818 5820 5821 5823 5824 5825 5826 5827 5828 5829 5830 5831 5832 5833 5834 5835 5836 5837 5838 5839 5839 5840 5841 5841 5842 5842 5842 5843 5843 5843 5843 5843
5785 5787 5791 5796 5797 5799 5802 5804 5806 5808 5810 5812 5814 5815 5817 5819 5820 5821 5822 5823 5824 5825 5826 5827 5828 5829 5830 5831 5832 5833 5834 5834 5835 5836 5836 5837 5837 5838 5838 5838 5838 5838 5838 5838
5780 5782 5785 5791 5793 5794 5797 5799 5802 5803 5806 5807 5809 5811 5814 5814 5815 5816 5818 5819 5820 5821 5822 5823 5824 5825 5826 5827 5828 5829 5830 5830 5830 5831 5831 5832 5833 5833 5833 5833 5833 5833 5833 5833
5773 5775 5780 5785 5787 5789 5793 5796 5797 5799 5801 5803 5805 5807 5809 5809 5811 5812 5813 5815 5816 5817 5818 5819 5820 5821 5822 5823 5824 5825 5825 5826 5826 5826 5827 5827 5828 5828 5828 5828 5828 5828 5828 5828
5767 5770 5776 5779 5781 5784 5787 5789 5791 5793 5795 5798 5800 5802 5803 5805 5806 5807 5809 5810 5811 5813 5814 5815 5816 5817 5818 5819 5819 5820 5821 5821 5821 5822 5822 5822 5822 5822 5822 5822 5822 5822 5822 5822
5762 5767 5770 5773 5775 5778 5780 5783 5785 5788 5790 5792 5794 5796 5798 5800 5801 5803 5804 5805 5807 5808 5809 5810 5811 5812 5813 5814 5814 5815 5816 5816 5816 5817 5817 5817 5817 5817 5816 5817 5817 5817 5816 5816
5755 5759 5763 5766 5769 5772 5774 5777 5779 5782 5784 5786 5789 5791 5793 5795 5796 5798 5799 5800 5802 5803 5804 5805 5806 5807 5807 5808 5809 5810 5810 5811 5811 5811 5811 5811 5811 5811 5811 5811 5811 5810 5810 5810
5749 5753 5756 5759 5762 5765 5768 5770 5772 5775 5778 5780 5783 5785 5787 5789 5790 5792 5793 5795 5796 5797 5799 5800 5801 5801 5802 5803 5804 5804 5805 5805 5805 5805 5805 5805 5805 5804 5804 5804 5804 5804 5803 5803
5743 5746 5749 5753 5755 5758 5760 5763 5766 5768 5771 5773 5776 5778 5780 5782 5784 5785 5787 5789 5790 5792 5793 5794 5795 5795 5796 5797 5797 5798 5799 5799 5799 5799 5799 5798 5798 5797 5797 5797 5796 5796 5795 5795
5735 5739 5742 5745 5748 5750 5753 5756 5758 5761 5764 5766 5769 5771 5773 5775 5777 5779 5780 5782 5783 5785 5786 5787 5788 5789 5790 5790 5791 5792 5792 5792 5792 5792 5792 5791 5791 5790 5790 5789 5789 5788 5787 5787
5728 5731 5734 5738 5740 5743 5746 5748 5751 5754 5756 5759 5761 5763 5765 5767 5769 5771 5773 5775 5776 5778 5779 5780 5781 5782 5783 5783 5784 5784 5785 5785 5785 5784 5784 5783 5783 5782 5782 5781 5781 5780 5779 5778
5721 5724 5727 5730 5733 5735 5738 5741 5743 5746 5748 5751 5753 5755 5757 5759 5761 5763 5765 5767 5768 5770 5772 5773 5774 5775 5775 5776 5776 5776 5777 5777 5777 5776 5776 5775 5775 5774 5774 5773 5772 5771 5770 5769
5713 5716 5718 5722 5725 5727 5730 5733 5735 5738 5740 5742 5744 5747 5749 5751 5753 5755 5757 5759 5760 5762 5764 5765 5766 5767 5767 5768 5768 5768 5768 5768 5768 5768 5767 5767 5766 5765 5765 5764 5763 5762 5761 5760
5704 5707 5710 5713 5716 5719 5722 5724 5727 5729 5731 5733 5736 5738 5740 5742 5744 5746 5749 5750 5752 5754 5755 5756 5757 5758 5759 5759 5760 5760 5760 5760 5760 5759 5759 5758 5757 5756 5756 5755 5754 5752 5751 5750
5695 5698 5701 5705 5707 5710 5713 5715 5718 5720 5722 5725 5727 5729 5731 5733 5735 5738 5740 5741 5743 5745 5746 5747 5748 5749 5750 5751 5751 5751 5751 5751 5751 5750 5750 5749 5748 5747 5746 5745 5744 5742 5741 5739
5686 5689 5692 5695 5698 5701 5704 5706 5709 5711 5713 5716 5718 5720 5722 5724 5726 5728 5730 5732 5734 5736 5737 5738 5739 5740 5741 5741 5742 5742 5742 5742 5742 5741 5740 5739 5738 5737 5736 5735 5734 5732 5730 5728
5677 5680 5683 5686 5689 5692 5695 5697 5699 5702 5704 5707 5709 5711 5713 5715 5717 5719 5720 5722 5724 5726 5727 5729 5730 5730 5731 5732 5732 5732 5732 5732 5732 5731 5730 5729 5729 5727 5726 5725 5723 5721 5719 5717
5668 5670 5673 5676 5679 5682 5685 5687 5690 5693 5695 5697 5700 5702 5703 5705 5707 5709 5710 5712 5714 5715 5717 5718 5719 5720 5721 5721 5722 5722 5722 5721 5721 5720 5720 5719 5718 5716 5715 5713 5712 5710 5708 5706
5658 5661 5663 5666 5669 5672 5675 5678 5680 5683 5685 5688 5689 5691 5693 5695 5696 5698 5700 5702 5703 5705 5706 5707 5708 5709 5709 5710 5711 5711 5711 5711 5710 5709 5708 5707 5706 5705 5703 5702 5700 5698 5696 5694
5649 5651 5653 5656 5659 5662 5665 5668 5670 5673 5675 5677 5679 5681 5683 5684 5686 5687 5689 5691 5692 5694 5695 5695 5696 5697 5698 5698 5699 5699 5699 5699 5699 5698 5697 5696 5695 5693 5692 5690 5688 5686 5684 5682
5639 5641 5643 5646 5649 5651 5654 5657 5660 5662 5664 5667 5668 5670 5671 5673 5675 5676 5677 5679 5681 5682 5683 5684 5685 5685 5686 5686 5687 5687 5687 5687 5687 5686 5685 5684 5683 5682 5680 5678 5676 5674 5672 5670
5629 5631 5634 5637 5639 5642 5644 5647 5649 5652 5654 5656 5657 5659 5660 5662 5663 5665 5666 5668 5669 5670 5671 5672 5673 5673 5674 5674 5674 5675 5675 5675 5675 5674 5673 5672 5671 5670 5668 5666 5665 5663 5660 5658
5620 5622 5625 5627 5629 5632 5634 5637 5639 5641 5643 5645 5646 5648 5649 5650 5652 5653 5654 5656 5657 5658 5659 5660 5661 5661 5661 5662 5662 5662 5662 5662 5662 5661 5661 5660 5658 5657 5656 5654 5652 5650 5648 5646
5611 5613 5616 5618 5620 5622 5624 5626 5628 5630 5632 5634 5635 5637 5638 5639 5641 5642 5643 5644 5645 5646 5647 5647 5648 5649 5649 5649 5649 5649 5649 5649 5649 5649 5648 5647 5646 5645 5643 5642 5640 5638 5636 5634